Home > Weather > Kiel > Past weeks

Flag for Germany Past Weather in Kiel, Schleswig-Holstein, Germany — Yesterday and Last 2 Weeks

Now
61 °F

Sunny.


Feels Like: 61 °F
Forecast: 50 / 67 °F
Wind: 7 mph from Northeast

Location: Kiel / Holtenau Civilian

Current Time: May 27, 2016 at 10:24:31 PM

Latest Report: May 27, 2016 at 7:50 PM


Visibility: 10 mi

Pressure: 30.07 "Hg

Humidity: 72%

Dew Point: 52 °F

Location of KielLocation

Past Weather in Kiel — Graph

°F

Kiel Temperature Yesterday

Maximum temperature yesterday: 57 °F (at 12:50 PM)
Minimum temperature yesterday: 55 °F (at 8:20 AM)
Average temperature yesterday: 56 °F

High & Low Weather Summary for the Past Weeks

 TemperatureHumidityPressure
High79 °F (May 22, 3:20 PM)100% (May 13, 4:50 PM)30.07 "Hg (May 13, 4:50 PM)
Low43 °F (May 15, 12:50 PM)37% (May 22, 5:20 PM)29.62 "Hg (May 13, 2:20 PM)
Average58 °F77%29.87 "Hg
* Reported May 13 8:20 AM — May 27 7:50 PM, Kiel, Weather by CustomWeather, © 2016

Note: Actual official high and low records may vary slightly from our data, if they occured in-between our weather recording intervals... More about our weather records

Advertising

Kiel Weather History for the Previous 24 Hours

Scroll right to see more
 ConditionsComfort  
Time TempWeatherWind HumidityBarometerVisibility
7:50 PM
Fri, May 27
61 °FSunny.7 mph72%30.07 "Hg10 mi
7:20 PM61 °FSunny.7 mph68%30.07 "Hg10 mi
6:20 PM63 °FSunny.7 mph68%30.07 "Hg10 mi
5:50 PM61 °FPassing clouds.7 mph68%30.07 "HgN/A
4:50 PM63 °FPassing clouds.7 mph64%30.07 "HgN/A
4:20 PM63 °FPassing clouds.5 mph64%30.07 "HgN/A
3:50 PM59 °FSunny.6 mph68%30.07 "Hg10 mi
3:20 PM61 °FPassing clouds.7 mph68%30.07 "HgN/A
2:50 PM61 °FPassing clouds.7 mph77%30.07 "HgN/A
2:20 PM61 °FPassing clouds.7 mph83%30.07 "HgN/A
1:50 PM59 °FScattered clouds.7 mph77%30.07 "HgN/A
1:20 PM57 °FPartly sunny.8 mph88%30.07 "HgN/A
12:50 PM57 °FPartly sunny.10 mph82%30.07 "HgN/A
11:50 AM57 °FPartly sunny.5 mph88%30.07 "HgN/A
11:20 AM57 °FSunny.3 mph88%30.07 "Hg10 mi
10:50 AM57 °FPartly sunny.5 mph88%30.07 "HgN/A
10:20 AM55 °FBroken clouds.3 mph100%30.07 "HgN/A
9:50 AM55 °FBroken clouds.3 mph100%30.07 "HgN/A
9:20 AM55 °FPartly sunny.6 mph100%30.07 "HgN/A
8:50 AM55 °FBroken clouds.5 mph100%30.07 "HgN/A
8:20 AM55 °FPartly sunny.5 mph100%30.07 "HgN/A
Weather by CustomWeather, © 2016

See weather overviewHow to use our weather pages